Location: De Platvoet
(52.2667°N, 6.1667°E)
Time: 07:52:13
(UTC+00:00)

Alouette 2 Rocket - Pass Details

Date: 15 May 2026
Orbit: 501 x 2614 km, 79.8° (Epoch: 6 June)

Event Time Altitude Azimuth Distance (km) Brightness Sun altitude
Rises 23:20:42 0° 347° (NNW) 2,629 8.4 -18.6°
Reaches altitude 10° 23:22:38 10° 350° (N) 1,790 7.2 -18.7°
Maximum altitude 23:26:23 65° 74° (ENE) 677 3.7 -18.7°
Enters shadow 23:28:15 33° 145° (SE) 1,122 4.4 -18.7°
